Location: Boursonne
(49.2024°N, 3.0468°E)
Time: 09:44:35
(UTC+00:00)

USA 307 - Pass Details

Date: 03 March 2021
Orbit: 567 x 577 km, 54.0° (Epoch: 10 April)

Event Time Altitude Azimuth Distance (km) Brightness Sun altitude
Rises 18:14:59 0° 266° (W) 2,786 9.1 -7.4°
Reaches altitude 10° 18:17:19 10° 272° (W) 1,887 7.3 -7.8°
Maximum altitude 18:21:29 49° 348° (NNW) 748 3.6 -8.5°
Drops below altitude 10° 18:25:40 10° 64° (ENE) 1,883 5.0 -9.2°
Enters shadow 18:25:45 10° 65° (ENE) 1,917 5.0 -9.2°
